Tracking 30922 objects as of 2-Jul-2025
HD Live streaming from Space Station
objects crossing your sky now

STARLINK-31112

Track STARLINK-31112 now!
10-day predictions
STARLINK-31112 is classified as:


NORAD ID: 58680
Int'l Code: 2023-211P
Perigee: 489.5 km
Apogee: 490.9 km
Inclination: 43.0 °
Period: 94.3 minutes
Semi major axis: 6861 km
RCS: Unknown
Launch date: December 29, 2023
Source: United States (US)
Launch site: AIR FORCE EASTERN TEST RANGE (AFETR)
Your satellite tracking list
Your tracking list is empty




NASA's NSSDC Master Catalog

Two Line Element Set (TLE):
1 58680U 23211P   25182.72528231  .00000124  00000-0  14034-4 0  9997
2 58680  43.0050  62.5229 0001042 256.3465 103.7271 15.27582781 85263
Source of the keplerian elements: AFSPC